Delta Virtual Airport Information Service

Hong Kong International Airport

ICAO: VHHH Country: Hong Kong
Latitude: 22.3089 Longitude: 113.915
Latest Arrival : CLX4626 (1C) (VVTS-VHHH) Latest Departure : DAC982 (VHHH-ZGGG)


WX CaptureLIVE
Data provided by noaa.gov | Fetched at 18:26:35

METAR : VHHH 172200Z 09004KT 060V150 9999 VCSH FEW012 SCT025 27/24 Q1005 NOSIG

TAF : VHHH 172200Z 09004KT 060V150 9999 VCSH FEW012 SCT025 27/24 Q1005 NOSIG


Runway Data for VHHH
Data provided by openaviationdata.com

Runway ID Mag Var Hdg Length Elevation Surface ILS Freq ILS Id ILS Slope
07L -2 72° 12431 ft 28 ft Asphalt 111.1 IZSL 3
07R -2 72° 12431 ft 28 ft Asphalt 109.3 ISR 3
25L -2 252° 12431 ft 28 ft Asphalt 108.9 IFL 3
25R -2 252° 12431 ft 28 ft Asphalt 110.9 ITFR 3

Hong Kong International Airport, Hong Kong
Use only for reference purposes



Not for navigational purposes.